Valentine, NE

4:18 PM CST on December 12, 2019 (GMT -0600)
Miller Field

Weather History for KVTN - November, 2019

Change the Weather History Date:

Saturday, November 16, 2019

  Actual Average Record
Temperature  
Mean Temperature 44 °F 34 °F  
Max Temperature 59 °F 47 °F 82 °F (1941)
Min Temperature 28 °F 21 °F -13 °F (2014)
Degree Days  
Heating Degree Days 22 31  
Month to date heating degree days 474 432  
Since 1 July heating degree days 1231 1134  
Cooling Degree Days 0 0  
Month to date cooling degree days 0 0  
Year to date cooling degree days 930 821  
Moisture  
Dew Point 32 °F    
Average Humidity 67    
Maximum Humidity 85    
Minimum Humidity 40    
Precipitation  
Precipitation T in 0.02 in 0.28 in (1996)
Month to date precipitation 0.20 0.40  
Year to date precipitation 28.27 19.40  
Snow  
Snow 0.00 in 0.20 in 5.00 in (1996)
Month to date snowfall 2.2 2.8  
Since 1 July snowfall 4.1 5.0  
Since 1 September snowfall 4.1 5.0  
Snow Depth 0.00 in    
Sea Level Pressure  
Sea Level Pressure 29.99 in    
Wind  
Wind Speed 7 mph ()    
Max Wind Speed 29 mph    
Max Gust Speed 41 mph    
Visibility 10.0 miles    
Events      
T = Trace of Precipitation, MM = Missing Value Source: Averaged Metar Reports

Daily Weather History Graph

Daily Weather History Graph

Search for Another Location

Airport or City:

Astronomy

Nov. 16, 2019 Rise Set
Actual Time 7:35 AM CST 5:18 PM CST
Civil Twilight 7:04 AM CST 5:48 PM CST
Nautical Twilight 6:30 AM CST 6:23 PM CST
Astronomical Twilight 5:56 AM CST 6:56 PM CST
Moon 8:50 PM CST (11/16) 11:33 AM CST (11/16)
Length of Visible Light 10h 44m
Length of Day
9h 42m
Waning Gibbous, 82% of the Moon is Illuminated
Nov 16
Waning Gibbous
Nov 19
Last Quarter
Nov 26
New
Dec 4
First Quarter
Dec 11
Full

Hourly Weather History & Observations

Time (CST) Temp. Windchill Dew Point Humidity Pressure Visibility Wind Dir Wind Speed Gust Speed Precip Events Conditions
12:52 AM 35.1 °F - 28.9 °F 78% 29.95 in 10.0 mi Calm Calm - N/A   Clear
2:52 AM 28.9 °F 21.9 °F 24.1 °F 82% 29.93 in 10.0 mi SW 6.9 mph - N/A   Clear
3:52 AM 32.0 °F 28.7 °F 27.0 °F 82% 29.91 in 10.0 mi West 3.5 mph - N/A   Clear
4:52 AM 33.1 °F 27.7 °F 27.0 °F 78% 29.91 in 10.0 mi NW 5.8 mph - N/A   Clear
5:52 AM 30.0 °F 21.7 °F 26.1 °F 85% 29.92 in 10.0 mi SW 9.2 mph - N/A   Clear
6:52 AM 30.9 °F 23.5 °F 27.0 °F 85% 29.92 in 10.0 mi SW 8.1 mph - N/A   Clear
7:52 AM 33.1 °F 26.1 °F 28.0 °F 82% 29.93 in 10.0 mi SW 8.1 mph - N/A   Clear
8:52 AM 37.0 °F 32.4 °F 30.9 °F 79% 29.93 in 10.0 mi West 5.8 mph - N/A   Clear
9:52 AM 42.1 °F 37.7 °F 33.1 °F 70% 29.94 in 10.0 mi WNW 6.9 mph - N/A   Clear
10:52 AM 53.1 °F - 35.1 °F 50% 29.94 in 10.0 mi NW 11.5 mph - N/A   Clear
12:52 PM 55.9 °F - 34.0 °F 44% 29.95 in 10.0 mi NNW 16.1 mph 25.3 mph N/A   Clear
1:52 PM 55.9 °F - 33.1 °F 42% 29.97 in 10.0 mi North 13.8 mph 24.2 mph N/A   Partly Cloudy
2:52 PM 57.0 °F - 35.1 °F 44% 29.97 in 10.0 mi NNW 17.3 mph 28.8 mph N/A   Partly Cloudy
3:52 PM 55.0 °F - 36.0 °F 49% 29.99 in 10.0 mi NNW 17.3 mph - N/A   Mostly Cloudy
4:52 PM 53.1 °F - 35.1 °F 50% 30.03 in 10.0 mi NW 17.3 mph 26.5 mph N/A   Overcast
5:52 PM 51.1 °F - 36.0 °F 56% 30.08 in 10.0 mi NW 11.5 mph - N/A   Overcast
6:52 PM 48.0 °F - 37.0 °F 66% 30.11 in 10.0 mi WNW 5.8 mph - 0.00 in   Overcast
7:52 PM 48.0 °F - 37.0 °F 66% 30.12 in 10.0 mi NW 11.5 mph - 0.00 in   Overcast
8:52 PM 46.9 °F - 35.1 °F 63% 30.14 in 10.0 mi NNW 13.8 mph - N/A   Scattered Clouds
10:52 PM 37.0 °F 31.0 °F 30.9 °F 79% 30.13 in 10.0 mi West 8.1 mph - N/A   Partly Cloudy
11:52 PM 37.0 °F 31.0 °F 30.9 °F 79% 30.12 in 10.0 mi West 8.1 mph - N/A   Clear